RYR4769 LOWW-LFOB

Flight info

Callsign RYR4769
Flight time N/A
Altitude 34000
Route MEDIX DCT RENKA L610 STAUB/N0400F240 L610 MAMOR DCT ASPAT DCT VIBOM DCT BETEX DCT IDOSA DCT TOLVU/N0451F350 DCT RAPOR DCT VEDUS
Aircraft A320/M-SDE3FGHIRWY/LB1

Departure

Time 2026-04-21 18:18
Airport Vienna International Airport (LOWW)

Arrival

Time N/A
Airport Beauvais-Tillé airport (LFOB)
Time Latitude Longitude Altitude Speed Heading
2026-04-21 17:56 48.11936 16.55807 608 ft 0 kts 297°
2026-04-21 18:08 48.11935 16.55809 609 ft 1 kts 297°
2026-04-21 18:08 48.11927 16.55832 626 ft 3 kts 293°
2026-04-21 18:09 48.11920 16.55861 623 ft 3 kts 285°
2026-04-21 18:09 48.11916 16.55890 625 ft 3 kts 267°
2026-04-21 18:09 48.11920 16.55916 620 ft 2 kts 223°
2026-04-21 18:09 48.11925 16.55923 618 ft 0 kts 206°
2026-04-21 18:11 48.11919 16.55919 621 ft 3 kts 206°
2026-04-21 18:11 48.11890 16.55897 617 ft 7 kts 206°
2026-04-21 18:12 48.11857 16.55873 614 ft 5 kts 206°
2026-04-21 18:12 48.11829 16.55852 619 ft 4 kts 206°
2026-04-21 18:12 48.11792 16.55825 609 ft 6 kts 206°
2026-04-21 18:12 48.11753 16.55796 613 ft 7 kts 206°
2026-04-21 18:13 48.11706 16.55782 612 ft 6 kts 165°
2026-04-21 18:13 48.11680 16.55830 614 ft 6 kts 114°
2026-04-21 18:13 48.11664 16.55881 621 ft 6 kts 115°
2026-04-21 18:13 48.11638 16.55962 611 ft 11 kts 116°
2026-04-21 18:14 48.11541 16.56254 619 ft 16 kts 116°
2026-04-21 18:14 48.11494 16.56396 614 ft 14 kts 116°
2026-04-21 18:14 48.11454 16.56521 615 ft 12 kts 116°
2026-04-21 18:15 48.11418 16.56630 617 ft 11 kts 116°
2026-04-21 18:15 48.11385 16.56731 623 ft 13 kts 116°
2026-04-21 18:15 48.11339 16.56874 615 ft 16 kts 115°
2026-04-21 18:15 48.11292 16.57024 618 ft 16 kts 115°
2026-04-21 18:16 48.11247 16.57164 616 ft 12 kts 115°
2026-04-21 18:16 48.11219 16.57226 617 ft 6 kts 138°
2026-04-21 18:16 48.11179 16.57238 618 ft 6 kts 198°
2026-04-21 18:16 48.11136 16.57200 618 ft 10 kts 208°
2026-04-21 18:17 48.11072 16.57150 616 ft 7 kts 207°
2026-04-21 18:17 48.11057 16.57087 617 ft 8 kts 300°
2026-04-21 18:17 48.11068 16.57063 612 ft 1 kts 302°
2026-04-21 18:17 48.11112 16.56930 617 ft 43 kts 296°
2026-04-21 18:18 48.11349 16.56201 613 ft 110 kts 295°
2026-04-21 18:18 48.11762 16.54929 663 ft 154 kts 296°
2026-04-21 18:18 48.12214 16.53467 1294 ft 158 kts 286°
2026-04-21 18:18 48.12058 16.51826 1919 ft 171 kts 240°
2026-04-21 18:19 48.11167 16.50571 2399 ft 186 kts 218°
2026-04-21 18:19 48.10025 16.49404 2628 ft 214 kts 215°
2026-04-21 18:19 48.08663 16.48063 2828 ft 254 kts 214°
2026-04-21 18:19 48.07090 16.46526 3203 ft 285 kts 214°
2026-04-21 18:20 48.05569 16.44497 3789 ft 301 kts 235°
2026-04-21 18:20 48.04689 16.41746 5018 ft 287 kts 259°
2026-04-21 18:20 48.04588 16.38870 6341 ft 272 kts 282°
2026-04-21 18:20 48.05013 16.36139 7461 ft 262 kts 289°
2026-04-21 18:21 48.05510 16.33615 8849 ft 248 kts 290°
2026-04-21 18:21 48.06022 16.31169 9897 ft 246 kts 291°
2026-04-21 18:21 48.06542 16.28717 10759 ft 248 kts 290°
2026-04-21 18:21 48.07078 16.26170 11246 ft 269 kts 290°
2026-04-21 18:22 48.07660 16.23385 11604 ft 293 kts 289°
2026-04-21 18:22 48.08280 16.20361 11941 ft 317 kts 289°
2026-04-21 18:22 48.08939 16.17095 12330 ft 336 kts 288°
2026-04-21 18:22 48.09614 16.13695 13078 ft 344 kts 288°
2026-04-21 18:23 48.10279 16.10326 14457 ft 328 kts 288°
2026-04-21 18:23 48.10906 16.07147 15990 ft 309 kts 288°
2026-04-21 18:23 48.11487 16.04204 17540 ft 289 kts 287°
2026-04-21 18:23 48.12072 16.01253 17951 ft 305 kts 287°
2026-04-21 18:24 48.12703 15.98081 18099 ft 323 kts 287°
2026-04-21 18:24 48.13362 15.94763 18251 ft 340 kts 287°
2026-04-21 18:24 48.14041 15.91315 18589 ft 350 kts 287°
2026-04-21 18:24 48.14731 15.87795 19075 ft 354 kts 287°
2026-04-21 18:25 48.15416 15.84288 19617 ft 356 kts 287°
2026-04-21 18:25 48.16113 15.80714 20161 ft 359 kts 287°
2026-04-21 18:25 48.16814 15.77115 20715 ft 361 kts 287°
2026-04-21 18:25 48.17518 15.73501 21255 ft 363 kts 287°
2026-04-21 18:26 48.18227 15.69855 21807 ft 366 kts 287°
2026-04-21 18:26 48.18941 15.66185 22340 ft 368 kts 287°
2026-04-21 18:26 48.19659 15.62491 22882 ft 370 kts 287°
2026-04-21 18:26 48.20380 15.58773 23414 ft 373 kts 287°
2026-04-21 18:27 48.21104 15.55030 23904 ft 375 kts 287°
2026-04-21 18:27 48.21830 15.51264 24310 ft 377 kts 287°
2026-04-21 18:27 48.22559 15.47475 24736 ft 379 kts 287°
2026-04-21 18:27 48.23290 15.43665 25141 ft 381 kts 287°
2026-04-21 18:28 48.24024 15.39833 25532 ft 383 kts 287°
2026-04-21 18:28 48.24762 15.35980 25920 ft 385 kts 287°
2026-04-21 18:28 48.25504 15.32106 26301 ft 387 kts 287°
2026-04-21 18:28 48.26247 15.28210 26663 ft 389 kts 287°
2026-04-21 18:29 48.26994 15.24293 27026 ft 391 kts 287°
2026-04-21 18:29 48.27742 15.20359 27386 ft 393 kts 287°
2026-04-21 18:29 48.28493 15.16398 27739 ft 395 kts 286°
2026-04-21 18:29 48.29246 15.12415 28076 ft 398 kts 286°
2026-04-21 18:30 48.30001 15.08410 28424 ft 400 kts 286°
2026-04-21 18:30 48.30758 15.04383 28761 ft 402 kts 286°
2026-04-21 18:30 48.31518 15.00335 29088 ft 404 kts 286°
2026-04-21 18:30 48.32279 14.96263 29413 ft 406 kts 286°
2026-04-21 18:31 48.33043 14.92162 29623 ft 410 kts 286°